This is the latest recevied weather packets stored in our database for station/object KD7MPG-3. If no packets are shown the sender has not sent any weather packets the latest 10 day(s).
| Time | Temp. | Humidity | Pressure | Rain* | Wind** | Luminosity | Snow |
|---|---|---|---|---|---|---|---|
| 1777148205 | 20.56° C | 31% | 1018.3 hPa | 0 mm | - | - | - |
| 1777147905 | 20.56° C | 30% | 1018.3 hPa | 0 mm | - | - | - |
| 1777147606 | 20° C | 33% | 1018.4 hPa | 0 mm | - | - | - |
| 1777147301 | 20° C | 32% | 1018.4 hPa | 0 mm | - | - | - |
| 1777146999 | 20° C | 32% | 1018.4 hPa | 0 mm | - | - | - |
| 1777146699 | 20° C | 34% | 1018.7 hPa | 0 mm | - | - | - |
| 1777146399 | 20° C | 35% | 1018.7 hPa | 0 mm | - | - | - |
| 1777146099 | 20° C | 34% | 1018.7 hPa | 0 mm | - | - | - |
| 1777145800 | 20° C | 35% | 1018.7 hPa | 0 mm | - | - | - |
| 1777145496 | 20° C | 35% | 1018.8 hPa | 0 mm | - | - | - |
| 1777145195 | 20° C | 35% | 1018.7 hPa | 0 mm | - | - | - |
| 1777144894 | 19.44° C | 36% | 1018.8 hPa | 0 mm | - | - | - |
| 1777144593 | 19.44° C | 34% | 1018.8 hPa | 0 mm | - | - | - |
| 1777144293 | 18.89° C | 36% | 1019 hPa | 0 mm | - | - | - |
| 1777143994 | 18.89° C | 35% | 1019 hPa | 0 mm | - | - | - |
| 1777143689 | 18.89° C | 37% | 1019.1 hPa | 0 mm | - | - | - |
| 1777143387 | 18.33° C | 39% | 1019.1 hPa | 0 mm | - | - | - |
| 1777143087 | 18.33° C | 39% | 1019.1 hPa | 0 mm | - | - | - |
| 1777142787 | 18.33° C | 40% | 1019.4 hPa | 0 mm | - | - | - |
| 1777142488 | 18.33° C | 43% | 1019.3 hPa | 0 mm | - | - | - |
| 1777142188 | 18.33° C | 42% | 1019.4 hPa | 0 mm | - | - | - |
| 1777141882 | 17.78° C | 43% | 1019.5 hPa | 0 mm | - | - | - |
| 1777141582 | 17.78° C | 44% | 1019.5 hPa | 0 mm | - | - | - |
| 1777141281 | 17.78° C | 46% | 1019.6 hPa | 0 mm | - | - | - |
| 1777140981 | 17.78° C | 45% | 1019.7 hPa | 0 mm | - | - | - |
* Rain latest hour (hover to see other rain measurements)
** Current wind speed in m/s (hover to see current wind gust speed)